sat.trackr.live / text

‹ back to catalog

2024-095C

NORAD 59812 · 2024-095C

PAYLOAD ACTIVE UNKNOWN

§ Identity

Operator
Country
PRC
Launch date
2024-05-21
Launch site
JSC
Launch vehicle
Mass (kg)
RCS (m²)

External: N2YO · Heavens-Above · Gunter

§ Orbital elements

Epoch: 2026-05-31T06:41:57.656256Z

Period
88.35 min
Inclination
97.5292°
Eccentricity
0.0014744
Mean motion
16.29801527 rev/d
Perigee alt
183.4 km
Apogee alt
202.8 km
Semi-major
6,571.2 km
B*
1.2558e-3
RAAN
258.7723°
Arg perigee
267.5440°
Mean anomaly
92.4165°
Rev number
11,362

§ Raw data

2024-095C1 59812U 24095C   26151.27913954  .05525121  25708-5  12558-2 0  99912 59812  97.5292 258.7723 0014744 267.5440  92.4165 16.29801527113624

JSON: /api/v1/satellites/59812 · /tle

For live sub-satellite position, see the globe view (requires WebGL).

§ Visibility from observer

Set your observer location to see the next 7 days of passes ≥ 10°. The values pass through the URL so the page stays shareable.

No JS? Fill the form by hand. The geolocation button needs JavaScript.